Regional Weather Roundup
Issued by NWS

Home | Current Version | Previous Version | Graphics & Text | Print | Product List | Glossary On
Versions: 1 2 3 4 5 6 7 8 9 10 11 12 13 14 15 16 17 18 19 20 21 22 23 24 25 26 27 28 29 30 31 32 33 34 35 36 37 38 39 40 41 42 43 44 45 46 47 48 49 50
000
ASUS43 KLOT 251604
RWRIL

ILLINOIS REGIONAL WEATHER ROUNDUP
NATIONAL WEATHER SERVICE CHICAGO/ROMEOVILLE IL
1100 AM CDT THU MAY 25 2017

NOTE: "FAIR" INDICATES FEW OR NO CLOUDS BELOW 12,000 FEET WITH NO
SIGNIFICANT WEATHER AND/OR OBSTRUCTIONS TO VISIBILITY.

* THESE STATIONS ARE NOT UNDER NWS QUALITY CONTROL. THEY ALSO MAY NOT
  REPORT WEATHER SUCH AS PRECIPITATION OR FOG.

ILZ001-002-007-009-015-016-024-251700-
NORTHWEST ILLINOIS

CITY           SKY/WX    TMP DP  RH WIND       PRES   REMARKS
MOLINE         PTSUNNY   64  52  64 N9        29.69S
STERLING*      CLOUDY    57  53  86 N8        29.69S
$$

ILZ003-004-008-010-011-017-018-251700-
NORTH CENTRAL ILLINOIS

CITY           SKY/WX    TMP DP  RH WIND       PRES   REMARKS
ROCKFORD       CLOUDY    59  52  77 N12       29.68R
FREEPORT*      CLOUDY    57  52  82 N8        29.70S
ROCHELLE*      CLOUDY    56  52  86 N13       29.68R
DE KALB*       CLOUDY    56  52  88 N12       29.67R
$$

ILZ005-006-012>014-019>023-251700-
NORTHEAST ILLINOIS

CITY           SKY/WX    TMP DP  RH WIND       PRES   REMARKS
CHICAGO-OHARE  CLOUDY    59  51  75 N12       29.62S
CHICAGO-MIDWAY CLOUDY    59  52  77 NW14      29.62R
AURORA         CLOUDY    59  53  80 N13       29.65S
LANSING*       CLOUDY    56  54  94 N10       29.62S
WAUKEGAN       CLOUDY    60  53  77 NW8       29.62R
DUPAGE AIRPORT CLOUDY    58  54  86 NW13      29.63R
WHEELING       CLOUDY    58  54  86 N9        29.64R
NORTHERLY ISL    N/A     56  50  80 N12         N/A
$$

LMZ740>746-251700-
SOUTHERN LAKE MICHIGAN

STATION/POSITION SKY/WX   TEMP    WIND        PRES    VSBY  WAVE
                          AIR SEA DIR/SP/G                  HT/PER
                          (F)     (DEG/KT/KT) (MB)    (MI)  (FT/S)
SOUTHERN BUOY              46 45  360/ 14/ 16 1002.5          3/ 5
WILMETTE HARBOR            51 51                N/A           4/ 5
HARRISON CRIB              53     350/ 22/ 24   N/A
BURNHAM HARBOR             56     320/  6/ 17   N/A
CALUMET HARBOR             54     330/  8/ 14 1002.7S
BURNS HARBOR               49     340/ 16/ 20 1003.0R
MICHIGAN CITY              49     320/ 19/ 20   N/A
MICHIGAN CITY 6N           48 52  330/ 14/ 19   N/A           5/ 5
ST. JOSEPH                 53 56   10/ 14/ 17 1002.1R         5/ 5
$$

ILZ025>027-034>036-040-047-049-050-058-095>099-251700-
WEST-CENTRAL ILLINOIS

CITY           SKY/WX    TMP DP  RH WIND       PRES   REMARKS
QUINCY         MOSUNNY   64  51  62 NW9       29.72R
MACOMB*        MOSUNNY   63  55  77 NW12      29.72S
$$

ILZ028>032-037-038-041>044-048-051>054-059>061-251700-
CENTRAL ILLINOIS

CITY           SKY/WX    TMP DP  RH WIND       PRES   REMARKS
BLOOMINGTON    CLOUDY    57  53  86 NW14      29.68R
DECATUR        CLOUDY    59  54  83 NW12      29.67S
PEORIA         CLOUDY    59  53  80 VRB7      29.68F
LACON*         CLOUDY    56  54  91 NW9       29.68R
LINCOLN*       CLOUDY    60  55  83 NW5       29.69R
SPRINGFIELD    MOSUNNY   65  56  72 NW13      29.69S
TAYLORVILLE    NOT AVBL
$$

ILZ033-039-045-046-055>057-062-063-251700-
EAST-CENTRAL ILLINOIS

CITY           SKY/WX    TMP DP  RH WIND       PRES   REMARKS
CHAMPAIGN      CLOUDY    61  54  77 NW18      29.65S
MATTOON        CLOUDY    59  56  89 NW13      29.67R
$$

ILZ079-100>102-251700-
SOUTHWEST ILLINOIS

CITY           SKY/WX    TMP DP  RH WIND       PRES   REMARKS
ALTON          PTSUNNY   64  52  63 NW14      29.72R
BELLEVILLE     MOSUNNY   65  52  61 NW9G20    29.73R
CAHOKIA*       MOSUNNY   69  50  50 NW13      29.72S
SPARTA*        PTSUNNY   66  53  63 NW8       29.73S
$$

ILZ064>066-069>071-074>076-080>082-084>086-088>090-092>094-251700-
SOUTH-CENTRAL ILLINOIS

CITY           SKY/WX    TMP DP  RH WIND       PRES   REMARKS
CARBONDALE     PTSUNNY   67  53  61 NW13G18   29.73R
CAIRO*         SUNNY     68  53  58 W10       29.75R
EFFINGHAM*     CLOUDY    64  57  80 W12       29.69R
MARION         MOSUNNY   66  54  63 W9        29.73S
MT. VERNON       N/A     66  55  67 W10       29.70R
CENTRALIA*     MOSUNNY   65  56  71 NW14G21   29.70S
SALEM*         PTSUNNY   66  54  65 NW13G18   29.69S
$$

ILZ067-068-072-073-078-083-087-091-251700-
SOUTHEAST ILLINOIS

CITY           SKY/WX    TMP DP  RH WIND       PRES   REMARKS
LAWRENCEVILLE  CLOUDY    62  56  80 NW18      29.66R
HARRISBURG*    MOSUNNY   67  55  64 W20       29.71S
ROBINSON*      CLOUDY    59  55  87 NW10      29.66R
CARMI*         PTSUNNY   66  57  71 W14G22    29.68R
$$

ABBREVIATIONS USED IN REMARKS
   TC - TEMPERATURE IN CELSIUS
  WCI - WIND CHILL INDEX
   HX - HEAT INDEX
  VSB - VISIBILITY
$$





USA.gov is the U.S. government's official web portal to all federal, state and local government web resources and services.